Brenham, TX

4:44 AM CST on January 23, 2018 (GMT -0600)
Brenham

Weather History for K11R - July, 2013

Change the Weather History Date:

Wednesday, July 3, 2013

  Actual Average (KCLL) Record (KCLL)
Temperature  
Mean Temperature 83 °F -  
Max Temperature 98 °F 91 °F 103 °F (2009)
Min Temperature 68 °F 71 °F 63 °F (1924)
Cooling Degree Days 18    
Growing Degree Days 33 (Base 50)    
Moisture  
Dew Point 55 °F    
Average Humidity 41    
Maximum Humidity 71    
Minimum Humidity 16    
Precipitation  
Precipitation 0.00 in - - ()
Sea Level Pressure  
Sea Level Pressure 29.98 in    
Wind  
Wind Speed 2 mph (SSE)    
Max Wind Speed 13 mph    
Max Gust Speed 16 mph    
Visibility 10 miles    
Events Thunderstorm    
Averages and records for this station are not official NWS values.
T = Trace of Precipitation, MM = Missing Value Source: NWS Daily Summary

Daily Weather History Graph

Daily Weather History Graph

Search for Another Location

Airport or City:

Trip Planner

Search our weather history database for the weather conditions in past years. The results will help you decide how hot, cold, wet, or windy it might be!

Date:

Astronomy

Jul. 03, 2013 Rise Set
Actual Time 6:28 AM CDT 8:31 PM CDT
Civil Twilight 6:00 AM CDT 8:58 PM CDT
Nautical Twilight 5:27 AM CDT 9:31 PM CDT
Astronomical Twilight 4:52 AM CDT 10:07 PM CDT
Moon 2:58 AM CDT (7/3) 4:49 PM CDT (7/3)
Length of Visible Light 14h 57m
Length of Day
14h 02m
Waning Crescent, 18% of the Moon is Illuminated
Jul 3
Waning Crescent
Jul 8
New
Jul 15
First Quarter
Jul 22
Full
Jul 29
Last Quarter

Hourly Weather History & Observations

Time (CDT) Temp. Heat Index Dew Point Humidity Pressure Visibility Wind Dir Wind Speed Gust Speed Precip Events Conditions
12:15 AM 81.0 °F - 48.7 °F 32% 30.02 in 10.0 mi East 3.5 mph - N/A   Overcast
12:35 AM 80.1 °F - 49.5 °F 34% 30.02 in 10.0 mi Calm Calm - N/A   Scattered Clouds
12:55 AM 78.8 °F - 50.4 °F 37% 30.02 in 10.0 mi Calm Calm - N/A   Clear
1:15 AM 78.4 °F - 52.7 °F 41% 30.02 in 10.0 mi Calm Calm - N/A   Clear
1:35 AM 74.5 °F - 54.1 °F 49% 30.02 in 10.0 mi Calm Calm - N/A   Clear
1:55 AM 76.1 °F - 53.6 °F 45% 30.01 in 10.0 mi Calm Calm - N/A   Clear
2:15 AM 74.5 °F - 54.7 °F 50% 30.01 in 10.0 mi Calm Calm - N/A   Clear
2:35 AM 72.9 °F - 55.6 °F 55% 30.01 in 10.0 mi Calm Calm - N/A   Clear
2:55 AM 71.6 °F - 56.3 °F 58% 30.01 in 10.0 mi Calm Calm - N/A   Clear
3:15 AM 71.6 °F - 56.3 °F 58% 30.01 in 10.0 mi Calm Calm - N/A   Clear
3:35 AM 70.3 °F - 55.9 °F 60% 30.01 in 10.0 mi Calm Calm - N/A   Clear
3:55 AM 69.4 °F - 56.7 °F 64% 30.02 in 10.0 mi Calm Calm - N/A   Clear
4:15 AM 70.5 °F - 55.6 °F 59% 30.01 in 10.0 mi Calm Calm - N/A   Scattered Clouds
4:35 AM 69.1 °F - 56.3 °F 64% 30.00 in 10.0 mi Calm Calm - N/A   Scattered Clouds
4:55 AM 70.0 °F - 56.7 °F 63% 30.00 in 10.0 mi Calm Calm - N/A   Scattered Clouds
5:15 AM 68.7 °F - 56.7 °F 65% 30.00 in 10.0 mi Calm Calm - N/A   Scattered Clouds
5:35 AM 68.9 °F - 56.7 °F 65% 30.00 in 10.0 mi Calm Calm - N/A   Scattered Clouds
5:55 AM 68.0 °F - 57.2 °F 68% 30.01 in 10.0 mi Calm Calm - N/A   Scattered Clouds
6:15 AM 68.4 °F - 57.7 °F 69% 30.01 in 10.0 mi Calm Calm - N/A   Scattered Clouds
6:35 AM 68.2 °F - 58.3 °F 71% 30.00 in 10.0 mi Calm Calm - N/A   Scattered Clouds
6:55 AM 68.4 °F - 57.6 °F 68% 30.00 in 10.0 mi Calm Calm - N/A   Scattered Clouds
7:15 AM 69.3 °F - 59.2 °F 70% 30.01 in 10.0 mi Calm Calm - N/A   Scattered Clouds
7:35 AM 71.2 °F - 60.8 °F 69% 30.01 in 10.0 mi Calm Calm - N/A   Scattered Clouds
7:55 AM 72.9 °F - 62.1 °F 69% 30.02 in 10.0 mi Calm Calm - N/A   Scattered Clouds
8:15 AM 75.4 °F - 63.3 °F 66% 30.02 in 10.0 mi Calm Calm - N/A   Scattered Clouds
8:35 AM 77.4 °F - 64.2 °F 64% 30.02 in 10.0 mi Calm Calm - N/A   Clear
8:55 AM 79.7 °F - 64.8 °F 60% 30.02 in 10.0 mi Calm Calm - N/A   Clear
9:15 AM 81.9 °F 83.7 °F 65.1 °F 57% 30.03 in 10.0 mi SE 4.6 mph - N/A   Clear
9:35 AM 83.3 °F 85.1 °F 65.3 °F 54% 30.03 in 10.0 mi ESE 4.6 mph - N/A   Clear
9:55 AM 85.3 °F 86.6 °F 64.4 °F 49% 30.03 in 10.0 mi SE 3.5 mph - N/A   Clear
10:15 AM 87.3 °F 87.7 °F 62.2 °F 43% 30.03 in 10.0 mi Calm Calm - N/A   Clear
10:35 AM 88.0 °F 87.9 °F 60.8 °F 40% 30.03 in 10.0 mi SW 4.6 mph - N/A   Clear
10:55 AM 90.0 °F 89.4 °F 59.7 °F 36% 30.03 in 10.0 mi SSW 4.6 mph - N/A   Clear
11:15 AM 91.2 °F 89.4 °F 55.6 °F 30% 30.03 in 10.0 mi SSW 6.9 mph - N/A   Clear
11:35 AM 91.6 °F 89.3 °F 54.3 °F 28% 30.02 in 10.0 mi SW 3.5 mph - N/A   Scattered Clouds
11:55 AM 92.7 °F - 51.8 °F 25% 30.02 in 10.0 mi East 4.6 mph - N/A   Scattered Clouds
12:15 PM 91.6 °F - 48.2 °F 22% 30.01 in 10.0 mi South 5.8 mph - N/A   Mostly Cloudy
12:35 PM 93.6 °F - 46.9 °F 20% 30.01 in 10.0 mi WNW 3.5 mph - N/A   Scattered Clouds
12:55 PM 92.3 °F - 48.0 °F 22% 30.00 in 10.0 mi West 4.6 mph - N/A   Mostly Cloudy
1:15 PM 94.8 °F - 48.2 °F 20% 30.00 in 10.0 mi Calm Calm - N/A   Scattered Clouds
1:35 PM 95.2 °F - 47.7 °F 20% 29.99 in 10.0 mi SSE 4.6 mph - N/A   Clear
1:55 PM 96.4 °F - 45.5 °F 17% 29.98 in 10.0 mi SSE 3.5 mph - N/A   Clear
2:15 PM 94.8 °F - 46.0 °F 19% 29.97 in 10.0 mi SSW 4.6 mph - N/A   Scattered Clouds
2:35 PM 96.3 °F - 46.9 °F 19% 29.97 in 10.0 mi SSE 4.6 mph - N/A   Scattered Clouds
2:55 PM 97.3 °F - 47.3 °F 18% 29.95 in 7.0 mi South 8.1 mph - N/A   Clear
3:15 PM 96.8 °F - 47.8 °F 19% 29.95 in 10.0 mi Calm Calm - N/A   Clear
3:35 PM 96.8 °F - 49.1 °F 20% 29.94 in 10.0 mi East 6.9 mph - N/A   Clear
3:55 PM 97.3 °F - 46.0 °F 17% 29.93 in 10.0 mi South 4.6 mph - N/A   Clear
4:15 PM 97.0 °F - 44.2 °F 16% 29.92 in 10.0 mi South 4.6 mph - N/A   Scattered Clouds
4:35 PM 97.7 °F - 45.0 °F 16% 29.91 in 10.0 mi SSW 5.8 mph - N/A   Scattered Clouds
4:55 PM 98.1 °F - 44.8 °F 16% 29.91 in 10.0 mi SSE 6.9 mph - N/A   Clear
5:15 PM 97.7 °F - 44.8 °F 16% 29.90 in 10.0 mi South 5.8 mph - N/A   Clear
5:35 PM 97.3 °F - 46.4 °F 18% 29.90 in 10.0 mi Calm Calm - N/A   Clear
5:55 PM 97.5 °F - 44.4 °F 16% 29.89 in 10.0 mi Calm Calm - N/A   Scattered Clouds
6:15 PM 97.7 °F - 46.8 °F 18% 29.89 in 10.0 mi South 3.5 mph - N/A   Clear
6:35 PM 96.8 °F - 48.4 °F 19% 29.88 in 10.0 mi SSE 8.1 mph - N/A   Clear
6:55 PM 96.3 °F - 49.1 °F 20% 29.89 in 10.0 mi SSE 9.2 mph - N/A   Clear
7:15 PM 95.2 °F - 49.5 °F 21% 29.89 in 10.0 mi SSE 9.2 mph - N/A   Clear
7:35 PM 94.1 °F - 50.4 °F 23% 29.90 in 10.0 mi SE 6.9 mph - N/A   Clear
7:55 PM 92.8 °F - 51.1 °F 24% 29.90 in 10.0 mi SE 4.6 mph - N/A   Clear
8:15 PM 91.2 °F - 51.8 °F 26% 29.90 in 10.0 mi SSE 9.2 mph - N/A   Clear
8:35 PM 89.6 °F 89.5 °F 61.2 °F 38% 29.91 in 10.0 mi SSE 9.2 mph - N/A   Clear
8:55 PM 88.3 °F 88.6 °F 61.7 °F 41% 29.92 in 10.0 mi SSE 9.2 mph - N/A   Clear
9:15 PM 87.1 °F 87.2 °F 61.7 °F 42% 29.92 in 10.0 mi SSE 5.8 mph - N/A   Clear
9:35 PM 86.2 °F 87.1 °F 63.0 °F 46% 29.95 in 10.0 mi SE 12.7 mph 16.1 mph N/A Thunderstorm Clear
9:55 PM 85.1 °F 85.7 °F 62.2 °F 46% 29.95 in 10.0 mi ESE 8.1 mph - N/A Thunderstorm Scattered Clouds
10:15 PM 84.4 °F 85.4 °F 63.1 °F 49% 29.96 in 10.0 mi East 10.4 mph 16.1 mph N/A Thunderstorm Scattered Clouds
10:35 PM 82.0 °F 83.3 °F 63.1 °F 53% 29.98 in 10.0 mi East 6.9 mph - N/A Thunderstorm Mostly Cloudy
10:55 PM 83.3 °F 84.3 °F 63.1 °F 50% 29.98 in 10.0 mi SSW 6.9 mph - N/A Thunderstorm Thunderstorm
11:15 PM 82.9 °F 84.2 °F 63.7 °F 52% 29.97 in 10.0 mi SSW 3.5 mph - N/A Thunderstorm Thunderstorm
11:35 PM 82.8 °F 84.3 °F 64.4 °F 54% 30.00 in 10.0 mi WNW 4.6 mph - N/A Thunderstorm Clear
11:55 PM 82.6 °F 84.1 °F 64.6 °F 54% 29.99 in 10.0 mi SSW 3.5 mph - N/A   Clear